TimeCST,TemperatureF,Dew PointF,Humidity,Sea Level PressureIn,VisibilityMPH,Wind Direction,Wind SpeedMPH,Gust SpeedMPH,PrecipitationIn,Events,Conditions,WindDirDegrees,DateUTC
12:15 AM,37.0,30.2,76,29.61,10.0,WSW,17.3,33.4,N/A,,Overcast,240,2013-02-11 06:15:00
12:35 AM,36.7,29.5,75,29.61,10.0,SW,23.0,31.1,N/A,,Overcast,230,2013-02-11 06:35:00
12:55 AM,36.0,27.5,71,29.61,10.0,WSW,26.5,38.0,N/A,,Overcast,240,2013-02-11 06:55:00
1:15 AM,34.9,26.6,72,29.62,10.0,SW,25.3,33.4,N/A,,Overcast,230,2013-02-11 07:15:00
1:35 AM,34.5,26.6,73,29.64,10.0,SW,20.7,32.2,N/A,,Overcast,230,2013-02-11 07:35:00
1:55 AM,34.3,25.2,69,29.65,10.0,WSW,26.5,42.6,N/A,,Overcast,240,2013-02-11 07:55:00
2:15 AM,34.2,25.2,70,29.65,10.0,WSW,32.2,41.4,N/A,,Overcast,240,2013-02-11 08:15:00
2:35 AM,33.8,26.6,75,29.67,10.0,WSW,25.3,32.2,N/A,,Overcast,240,2013-02-11 08:35:00
2:55 AM,33.8,25.7,72,29.67,10.0,WSW,21.9,29.9,N/A,,Overcast,240,2013-02-11 08:55:00
3:15 AM,33.8,24.6,69,29.68,10.0,WSW,24.2,39.1,N/A,,Overcast,250,2013-02-11 09:15:00
3:35 AM,33.3,23.7,68,29.69,10.0,WSW,31.1,41.4,N/A,,Overcast,250,2013-02-11 09:35:00
3:55 AM,33.1,24.1,70,29.70,10.0,WSW,24.2,35.7,N/A,,Overcast,250,2013-02-11 09:55:00
4:15 AM,33.1,24.1,70,29.71,10.0,West,23.0,35.7,N/A,,Overcast,260,2013-02-11 10:15:00
4:35 AM,32.9,23.9,69,29.71,10.0,WSW,25.3,35.7,N/A,,Overcast,250,2013-02-11 10:35:00
4:55 AM,32.9,23.7,69,29.72,10.0,West,25.3,36.8,N/A,,Overcast,260,2013-02-11 10:55:00
5:15 AM,32.9,23.5,68,29.73,10.0,West,25.3,33.4,N/A,,Overcast,260,2013-02-11 11:15:00
5:35 AM,32.0,23.0,69,29.74,10.0,West,21.9,36.8,N/A,,Overcast,260,2013-02-11 11:35:00
5:55 AM,32.5,23.4,69,29.75,10.0,West,21.9,36.8,N/A,,Overcast,260,2013-02-11 11:55:00
6:15 AM,32.4,23.2,69,29.76,10.0,WSW,20.7,29.9,N/A,,Overcast,250,2013-02-11 12:15:00
6:35 AM,32.4,23.4,69,29.77,10.0,WSW,21.9,31.1,N/A,,Overcast,250,2013-02-11 12:35:00
6:55 AM,32.4,23.7,70,29.79,10.0,West,24.2,38.0,N/A,,Overcast,260,2013-02-11 12:55:00
7:15 AM,32.2,24.3,73,29.80,10.0,West,24.2,31.1,N/A,,Overcast,260,2013-02-11 13:15:00
7:35 AM,32.0,23.9,72,29.81,10.0,West,24.2,36.8,N/A,,Overcast,270,2013-02-11 13:35:00
7:55 AM,32.0,22.8,69,29.82,10.0,West,31.1,39.1,N/A,,Overcast,270,2013-02-11 13:55:00
8:15 AM,32.0,23.4,70,29.83,10.0,West,27.6,32.2,N/A,,Overcast,270,2013-02-11 14:15:00
8:35 AM,32.0,23.0,69,29.84,10.0,West,23.0,35.7,N/A,,Overcast,270,2013-02-11 14:35:00
8:55 AM,32.0,23.0,69,29.85,10.0,West,27.6,38.0,N/A,,Overcast,260,2013-02-11 14:55:00
9:15 AM,32.0,23.2,70,29.86,10.0,West,25.3,34.5,N/A,,Overcast,270,2013-02-11 15:15:00
9:35 AM,32.0,22.8,69,29.87,10.0,West,32.2,40.3,N/A,,Overcast,260,2013-02-11 15:35:00
9:55 AM,32.0,22.6,68,29.88,10.0,West,28.8,40.3,N/A,,Overcast,280,2013-02-11 15:55:00
10:15 AM,32.0,23.0,69,29.90,10.0,West,24.2,35.7,N/A,,Overcast,270,2013-02-11 16:15:00
10:35 AM,32.0,22.8,69,29.91,10.0,WSW,26.5,33.4,N/A,,Overcast,250,2013-02-11 16:35:00
10:55 AM,32.0,22.5,68,29.92,10.0,West,25.3,36.8,N/A,,Overcast,260,2013-02-11 16:55:00
11:15 AM,32.0,22.6,68,29.93,10.0,West,31.1,35.7,N/A,,Overcast,260,2013-02-11 17:15:00
11:35 AM,32.0,23.4,70,29.93,10.0,West,27.6,34.5,N/A,,Overcast,270,2013-02-11 17:35:00
11:55 AM,32.0,23.4,70,29.93,10.0,West,24.2,31.1,N/A,,Overcast,280,2013-02-11 17:55:00
12:15 PM,32.5,23.4,69,29.94,10.0,West,24.2,36.8,N/A,,Overcast,270,2013-02-11 18:15:00
12:35 PM,32.9,23.4,68,29.94,10.0,West,32.2,36.8,N/A,,Overcast,280,2013-02-11 18:35:00
12:55 PM,33.4,23.7,68,29.94,10.0,West,27.6,38.0,N/A,,Overcast,270,2013-02-11 18:55:00
1:15 PM,34.0,25.0,70,29.94,10.0,West,24.2,29.9,N/A,,Overcast,270,2013-02-11 19:15:00
1:35 PM,33.8,25.2,71,29.95,10.0,West,18.4,29.9,N/A,,Overcast,270,2013-02-11 19:35:00
1:55 PM,35.1,25.3,68,29.95,10.0,West,23.0,31.1,N/A,,Overcast,270,2013-02-11 19:55:00
2:15 PM,34.9,25.3,68,29.95,10.0,West,25.3,32.2,N/A,,Overcast,270,2013-02-11 20:15:00
2:35 PM,34.9,25.7,69,29.96,10.0,West,20.7,29.9,N/A,,Overcast,280,2013-02-11 20:35:00
2:55 PM,34.0,25.2,70,29.97,10.0,West,20.7,26.5,N/A,,Overcast,280,2013-02-11 20:55:00
3:15 PM,33.8,25.2,71,29.98,10.0,WNW,19.6,28.8,N/A,,Overcast,290,2013-02-11 21:15:00
3:35 PM,33.6,25.7,73,29.99,10.0,WNW,19.6,28.8,N/A,,Overcast,290,2013-02-11 21:35:00
3:55 PM,33.8,25.5,72,30.00,10.0,West,17.3,23.0,N/A,,Overcast,280,2013-02-11 21:55:00
4:55 PM,32.0,25.0,75,30.02,10.0,West,18.4,25.3,N/A,,Overcast,280,2013-02-11 22:55:00
5:15 PM,32.0,24.6,74,30.02,10.0,WNW,19.6,25.3,N/A,,Mostly Cloudy,290,2013-02-11 23:15:00
5:35 PM,31.1,24.8,77,30.03,10.0,West,17.3,25.3,N/A,,Scattered Clouds,280,2013-02-11 23:35:00
5:55 PM,30.7,24.4,77,30.04,10.0,West,16.1,21.9,N/A,,Scattered Clouds,280,2013-02-11 23:55:00
6:15 PM,30.6,24.3,77,30.05,10.0,West,15.0,23.0,N/A,,Scattered Clouds,280,2013-02-12 00:15:00
6:35 PM,30.6,23.9,76,30.05,10.0,West,17.3,24.2,N/A,,Scattered Clouds,280,2013-02-12 00:35:00
6:55 PM,31.1,24.1,75,30.05,10.0,West,19.6,24.2,N/A,,Mostly Cloudy,280,2013-02-12 00:55:00
7:15 PM,31.1,24.1,75,30.06,10.0,WNW,16.1,25.3,N/A,,Overcast,290,2013-02-12 01:15:00
7:35 PM,30.9,23.9,75,30.06,10.0,West,18.4,26.5,N/A,,Overcast,280,2013-02-12 01:35:00
7:55 PM,30.9,23.9,75,30.07,10.0,West,15.0,-,N/A,,Overcast,280,2013-02-12 01:55:00
8:15 PM,30.7,24.1,76,30.07,10.0,West,12.7,20.7,N/A,,Overcast,280,2013-02-12 02:15:00
8:35 PM,30.6,24.6,79,30.07,10.0,West,15.0,18.4,N/A,,Overcast,270,2013-02-12 02:35:00
8:55 PM,30.2,23.7,77,30.08,10.0,West,17.3,23.0,N/A,,Overcast,280,2013-02-12 02:55:00
9:15 PM,29.8,23.2,76,30.08,10.0,West,16.1,23.0,N/A,,Overcast,280,2013-02-12 03:15:00
9:35 PM,29.7,23.2,77,30.08,10.0,West,15.0,23.0,N/A,,Overcast,280,2013-02-12 03:35:00
9:55 PM,29.8,23.9,79,30.09,10.0,West,11.5,-,N/A,,Overcast,270,2013-02-12 03:55:00
10:15 PM,30.0,24.1,79,30.09,10.0,West,15.0,19.6,N/A,,Overcast,270,2013-02-12 04:15:00
10:35 PM,29.8,23.5,77,30.09,10.0,West,19.6,-,N/A,,Overcast,270,2013-02-12 04:35:00
10:55 PM,29.3,23.0,77,30.10,10.0,West,16.1,20.7,N/A,,Overcast,280,2013-02-12 04:55:00
11:15 PM,29.1,23.0,78,30.10,10.0,West,12.7,-,N/A,,Overcast,280,2013-02-12 05:15:00
11:35 PM,29.1,24.1,81,30.11,10.0,West,6.9,-,N/A,,Overcast,270,2013-02-12 05:35:00
11:55 PM,29.3,23.9,80,30.11,10.0,West,12.7,-,N/A,,Overcast,270,2013-02-12 05:55:00